When you browse on this site, cookies collect data to enhance your experience and personalize the content and advertising you see.
Visit our Privacy Policy to learn more. By continuing to use the site, you agree to this use of cookies and data.
  • In Deutschland
  • Länderverzeichnis
  • Für 7 Tage
  • Wassertemperatur
  • Satellitenkarten
  • Wetterkarte
  • Widgets
  • user-avatar
    Anmelden

    Stündliche Wetter Quito

    Heute, 26 März, Dienstag

    Zeit Temperatur Niederschläge Wind Luftdruck Luftfeuchtigkeit
    00:00 +18°C° 0.8 mm 1 m/S 622 mmHg 89%
    01:00 +18°C° 0.8 mm 1 m/S 622 mmHg 90%
    02:00 +18°C° 0.3 mm 1 m/S 622 mmHg 90%
    03:00 +18°C° 0.3 mm 1 m/S 622 mmHg 91%
    04:00 +16°C° 0.3 mm 1 m/S 622 mmHg 92%
    05:00 +18°C° 0.1 mm 1 m/S 622 mmHg 91%
    06:00 +18°C° 0.1 mm 1 m/S 622 mmHg 90%
    07:00 +19°C° 0.1 mm 1 m/S 623 mmHg 88%
    08:00 +21°C° 0.3 mm 1 m/S 624 mmHg 81%
    09:00 +23°C° 0.3 mm 1 m/S 624 mmHg 73%
    10:00 +25°C° 0.3 mm 1 m/S 625 mmHg 65%
    11:00 +26°C° 0.1 mm 2 m/S 625 mmHg 60%
    12:00 +26°C° 0.1 mm 2 m/S 625 mmHg 55%
    13:00 +27°C° 0.1 mm 2 m/S 625 mmHg 49%
    14:00 +26°C° 0.5 mm 2 m/S 624 mmHg 56%
    15:00 +26°C° 0.5 mm 2 m/S 623 mmHg 63%
    16:00 +25°C° 0.5 mm 2 m/S 623 mmHg 70%
    17:00 +23°C° 0.8 mm 1 m/S 623 mmHg 74%
    18:00 +21°C° 0.8 mm 1 m/S 623 mmHg 79%
    19:00 +18°C° 0.8 mm 0 m/S 622 mmHg 84%
    20:00 +19°C° 0 mm 1 m/S 623 mmHg 86%
    21:00 +19°C° 0 mm 1 m/S 623 mmHg 87%
    22:00 +18°C° 0 mm 1 m/S 624 mmHg 89%
    23:00 +18°C° 0 mm 1 m/S 623 mmHg 90%

    Morgen, 27 März, Mittwoch

    Zeit Temperatur Niederschläge Wind Luftdruck Luftfeuchtigkeit
    00:00 +16°C° 0 mm 1 m/S 623 mmHg 91%
    01:00 +16°C° 0 mm 1 m/S 623 mmHg 93%
    02:00 +16°C° 0 mm 1 m/S 623 mmHg 93%
    03:00 +16°C° 0 mm 1 m/S 622 mmHg 93%
    04:00 +15°C° 0 mm 1 m/S 622 mmHg 93%
    05:00 +16°C° 0 mm 1 m/S 623 mmHg 92%
    06:00 +18°C° 0 mm 1 m/S 624 mmHg 90%
    07:00 +18°C° 0 mm 1 m/S 624 mmHg 88%
    08:00 +21°C° 0 mm 1 m/S 625 mmHg 79%
    09:00 +23°C° 0 mm 1 m/S 626 mmHg 70%
    10:00 +26°C° 0 mm 1 m/S 627 mmHg 61%
    11:00 +26°C° 0.1 mm 2 m/S 627 mmHg 59%
    12:00 +27°C° 0.1 mm 2 m/S 626 mmHg 56%
    13:00 +27°C° 0.1 mm 3 m/S 626 mmHg 54%
    14:00 +26°C° 1.1 mm 2 m/S 625 mmHg 60%
    15:00 +25°C° 1.1 mm 2 m/S 624 mmHg 67%
    16:00 +25°C° 1.1 mm 1 m/S 624 mmHg 73%
    17:00 +23°C° 1 mm 1 m/S 624 mmHg 78%
    18:00 +21°C° 1 mm 1 m/S 624 mmHg 84%
    19:00 +20°C° 1 mm 1 m/S 624 mmHg 89%
    20:00 +20°C° 1.5 mm 1 m/S 624 mmHg 90%
    21:00 +19°C° 1.5 mm 1 m/S 624 mmHg 91%
    22:00 +19°C° 1.5 mm 1 m/S 625 mmHg 92%
    23:00 +19°C° 0.5 mm 1 m/S 625 mmHg 92%

    übermorgen, 28 März, Donnerstag

    Zeit Temperatur Niederschläge Wind Luftdruck Luftfeuchtigkeit
    00:00 +19°C° 0.5 mm 1 m/S 625 mmHg 91%
    01:00 +17°C° 0.5 mm 0 m/S 624 mmHg 91%
    02:00 +16°C° 0.2 mm 0 m/S 624 mmHg 91%
    03:00 +16°C° 0.2 mm 0 m/S 624 mmHg 91%
    04:00 +18°C° 0.2 mm 1 m/S 623 mmHg 92%
    05:00 +18°C° 0 mm 1 m/S 624 mmHg 92%
    06:00 +19°C° 0 mm 1 m/S 624 mmHg 92%
    07:00 +19°C° 0 mm 1 m/S 624 mmHg 92%
    08:00 +20°C° 0 mm 2 m/S 625 mmHg 84%
    09:00 +21°C° 0 mm 2 m/S 626 mmHg 76%
    10:00 +24°C° 0 mm 3 m/S 627 mmHg 68%
    11:00 +25°C° 0 mm 3 m/S 626 mmHg 65%
    12:00 +25°C° 0 mm 3 m/S 625 mmHg 62%
    13:00 +25°C° 0 mm 4 m/S 625 mmHg 59%
    14:00 +25°C° 0 mm 3 m/S 624 mmHg 61%
    15:00 +24°C° 0 mm 3 m/S 624 mmHg 64%
    16:00 +24°C° 0 mm 2 m/S 623 mmHg 66%
    17:00 +21°C° 0 mm 2 m/S 623 mmHg 70%
    18:00 +21°C° 0 mm 1 m/S 623 mmHg 75%
    19:00 +19°C° 0 mm 1 m/S 623 mmHg 79%
    20:00 +19°C° 0 mm 1 m/S 623 mmHg 77%
    21:00 +17°C° 0 mm 0 m/S 624 mmHg 75%
    22:00 +17°C° 0 mm 0 m/S 624 mmHg 73%
    23:00 +16°C° 0 mm 0 m/S 624 mmHg 75%

    29 März, Freitag

    Zeit Temperatur Niederschläge Wind Luftdruck Luftfeuchtigkeit
    00:00 +16°C° 0 mm 0 m/S 623 mmHg 76%
    01:00 +15°C° 0 mm 0 m/S 623 mmHg 77%
    02:00 +15°C° 0 mm 0 m/S 622 mmHg 80%
    03:00 +14°C° 0 mm 0 m/S 622 mmHg 83%
    04:00 +14°C° 0 mm 0 m/S 621 mmHg 86%
    05:00 +15°C° 0 mm 0 m/S 622 mmHg 85%
    06:00 +15°C° 0 mm 0 m/S 623 mmHg 83%
    07:00 +16°C° 0 mm 0 m/S 624 mmHg 82%
    08:00 +21°C° 0 mm 1 m/S 624 mmHg 73%
    09:00 +22°C° 0 mm 3 m/S 625 mmHg 64%
    10:00 +26°C° 0 mm 4 m/S 626 mmHg 55%
    11:00 +26°C° 0 mm 4 m/S 625 mmHg 53%
    12:00 +27°C° 0 mm 4 m/S 624 mmHg 51%
    13:00 +27°C° 0 mm 4 m/S 624 mmHg 50%
    14:00 +27°C° 0 mm 3 m/S 623 mmHg 51%
    15:00 +27°C° 0 mm 2 m/S 623 mmHg 53%
    16:00 +27°C° 0 mm 2 m/S 623 mmHg 54%
    17:00 +25°C° 0 mm 1 m/S 623 mmHg 60%
    18:00 +23°C° 0 mm 1 m/S 623 mmHg 66%
    19:00 +19°C° 0 mm 0 m/S 622 mmHg 71%
    20:00 +20°C° 1.4 mm 1 m/S 623 mmHg 77%
    21:00 +20°C° 1.4 mm 1 m/S 623 mmHg 83%
    22:00 +18°C° 1.4 mm 2 m/S 623 mmHg 89%
    23:00 +19°C° 0.2 mm 1 m/S 623 mmHg 89%

    30 März, Samstag

    Zeit Temperatur Niederschläge Wind Luftdruck Luftfeuchtigkeit
    00:00 +18°C° 0.2 mm 1 m/S 622 mmHg 90%
    01:00 +16°C° 0.2 mm 0 m/S 622 mmHg 91%
    02:00 +18°C° 0.8 mm 1 m/S 622 mmHg 92%
    03:00 +17°C° 0.8 mm 2 m/S 622 mmHg 93%
    04:00 +17°C° 0.8 mm 2 m/S 622 mmHg 94%
    05:00 +17°C° 0.8 mm 2 m/S 622 mmHg 92%
    06:00 +18°C° 0.8 mm 1 m/S 623 mmHg 91%
    07:00 +18°C° 0.8 mm 1 m/S 623 mmHg 90%
    08:00 +21°C° 0 mm 1 m/S 624 mmHg 79%
    09:00 +23°C° 0 mm 1 m/S 625 mmHg 69%
    10:00 +26°C° 0 mm 1 m/S 626 mmHg 59%
    11:00 +26°C° 0.5 mm 2 m/S 625 mmHg 59%
    12:00 +26°C° 0.5 mm 2 m/S 624 mmHg 59%
    13:00 +26°C° 0.5 mm 3 m/S 623 mmHg 58%
    14:00 +26°C° 0.8 mm 2 m/S 623 mmHg 61%
    15:00 +26°C° 0.8 mm 2 m/S 623 mmHg 63%
    16:00 +25°C° 0.8 mm 1 m/S 622 mmHg 66%
    17:00 +23°C° 0.3 mm 1 m/S 622 mmHg 72%
    18:00 +21°C° 0.3 mm 1 m/S 622 mmHg 78%
    19:00 +20°C° 0.3 mm 1 m/S 622 mmHg 84%
    20:00 +19°C° 0.5 mm 1 m/S 622 mmHg 85%
    21:00 +19°C° 0.5 mm 1 m/S 623 mmHg 87%
    22:00 +18°C° 0.5 mm 1 m/S 623 mmHg 88%
    23:00 +18°C° 0 mm 1 m/S 623 mmHg 89%

    31 März, Sonntag

    Zeit Temperatur Niederschläge Wind Luftdruck Luftfeuchtigkeit
    00:00 +18°C° 0 mm 1 m/S 623 mmHg 89%
    01:00 +18°C° 0 mm 1 m/S 622 mmHg 90%
    02:00 +18°C° 0 mm 1 m/S 622 mmHg 91%
    03:00 +16°C° 0 mm 1 m/S 622 mmHg 92%
    04:00 +16°C° 0 mm 1 m/S 622 mmHg 93%
    05:00 +16°C° 0 mm 1 m/S 622 mmHg 92%
    06:00 +18°C° 0 mm 1 m/S 623 mmHg 91%
    07:00 +18°C° 0 mm 1 m/S 623 mmHg 90%
    08:00 +20°C° 0.2 mm 1 m/S 624 mmHg 84%
    09:00 +22°C° 0.2 mm 1 m/S 624 mmHg 79%
    10:00 +23°C° 0.2 mm 1 m/S 625 mmHg 73%
    11:00 +24°C° 0.1 mm 2 m/S 624 mmHg 70%
    12:00 +24°C° 0.1 mm 2 m/S 624 mmHg 67%
    13:00 +24°C° 0.1 mm 2 m/S 623 mmHg 64%
    14:00 +24°C° 0 mm 2 m/S 623 mmHg 66%
    15:00 +23°C° 0 mm 1 m/S 623 mmHg 69%
    16:00 +23°C° 0 mm 1 m/S 623 mmHg 71%
    17:00 +21°C° 0.3 mm 1 m/S 623 mmHg 77%
    18:00 +19°C° 0.3 mm 2 m/S 623 mmHg 83%
    19:00 +17°C° 0.3 mm 2 m/S 623 mmHg 89%
    20:00 +18°C° 0.1 mm 1 m/S 623 mmHg 89%
    21:00 +18°C° 0.1 mm 1 m/S 623 mmHg 90%
    22:00 +15°C° 0.1 mm 0 m/S 623 mmHg 91%
    23:00 +16°C° 0.4 mm 0 m/S 623 mmHg 92%
    Mehr zeigen